Louisville, KY

6:48 PM EST on January 17, 2017 (GMT -0500)
Louisville International-Standiford

Weather History for KSDF - November, 2013

Change the Weather History Date:

Tuesday, November 5, 2013

  Actual Average Record
Temperature  
Mean Temperature 57 °F 53 °F  
Max Temperature 64 °F 63 °F 80 °F (1975)
Min Temperature 50 °F 43 °F 18 °F (1991)
Degree Days  
Heating Degree Days 8 12  
Month to date heating degree days 55 58  
Since 1 July heating degree days 288 300  
Cooling Degree Days 0 0  
Month to date cooling degree days 0 0  
Year to date cooling degree days 1628 1609  
Growing Degree Days 7 (Base 50)    
Moisture  
Dew Point 40 °F    
Average Humidity 56    
Maximum Humidity 68    
Minimum Humidity 43    
Precipitation  
Precipitation 0.00 in 0.11 in 3.58 in (1948)
Month to date precipitation 0.01 0.56  
Year to date precipitation 44.46 38.05  
Snow  
Snow 0.00 in 0.00 in T in (1995)
Month to date snowfall 0.0 0.0  
Since 1 July snowfall T 0.1  
Since 1 September snowfall T 0.1  
Snow Depth 0.00 in    
Sea Level Pressure  
Sea Level Pressure 30.31 in    
Wind  
Wind Speed 5 mph (SE)    
Max Wind Speed 9 mph    
Max Gust Speed 13 mph    
Visibility 10 miles    
Events      
T = Trace of Precipitation, MM = Missing Value Source: NWS Daily Summary

Daily Weather History Graph

Daily Weather History Graph

Search for Another Location

Airport or City:

Trip Planner

Search our weather history database for the weather conditions in past years. The results will help you decide how hot, cold, wet, or windy it might be!

Date:

Astronomy

Nov. 05, 2013 Rise Set
Actual Time 7:13 AM EST 5:39 PM EST
Civil Twilight 6:45 AM EST 6:06 PM EST
Nautical Twilight 6:14 AM EST 6:38 PM EST
Astronomical Twilight 5:43 AM EST 7:08 PM EST
Moon 9:26 AM EST (11/5) 7:41 PM EST (11/5)
Length of Visible Light 11h 20m
Length of Day
10h 25m
Waxing Crescent, 6% of the Moon is Illuminated
Nov 5
Waxing Crescent
Nov 10
First Quarter
Nov 17
Full
Nov 25
Last Quarter
Dec 2
New

Hourly Weather History & Observations

Time (EST) Temp. Dew Point Humidity Pressure Visibility Wind Dir Wind Speed Gust Speed Precip Events Conditions
12:56 AM 54.0 °F 41.0 °F 62% 30.33 in 10.0 mi SE 4.6 mph - N/A   Overcast
1:56 AM 54.0 °F 41.0 °F 62% 30.32 in 10.0 mi SE 8.1 mph - N/A   Overcast
2:56 AM 53.1 °F 41.0 °F 64% 30.33 in 10.0 mi SE 6.9 mph - N/A   Overcast
3:56 AM 55.0 °F 39.9 °F 57% 30.34 in 10.0 mi SSE 4.6 mph - N/A   Overcast
4:56 AM 53.1 °F 41.0 °F 64% 30.35 in 10.0 mi ESE 6.9 mph - N/A   Overcast
5:56 AM 53.1 °F 41.0 °F 64% 30.35 in 10.0 mi SE 5.8 mph - N/A   Overcast
6:56 AM 51.1 °F 39.9 °F 66% 30.37 in 10.0 mi ESE 4.6 mph - N/A   Mostly Cloudy
7:56 AM 52.0 °F 41.0 °F 66% 30.38 in 10.0 mi ESE 3.5 mph - N/A   Overcast
8:56 AM 53.1 °F 41.0 °F 64% 30.39 in 10.0 mi East 3.5 mph - N/A   Overcast
9:56 AM 55.0 °F 39.0 °F 55% 30.39 in 10.0 mi ESE 5.8 mph - N/A   Overcast
10:56 AM 57.0 °F 39.0 °F 51% 30.40 in 10.0 mi SSE 6.9 mph - N/A   Mostly Cloudy
11:56 AM 60.1 °F 39.0 °F 46% 30.39 in 10.0 mi South 4.6 mph - N/A   Mostly Cloudy
12:56 PM 61.0 °F 39.0 °F 44% 30.34 in 10.0 mi ESE 5.8 mph - N/A   Mostly Cloudy
1:56 PM 62.1 °F 41.0 °F 46% 30.33 in 10.0 mi SSE 6.9 mph - N/A   Mostly Cloudy
2:56 PM 63.0 °F 41.0 °F 45% 30.30 in 10.0 mi ESE 6.9 mph - N/A   Mostly Cloudy
3:56 PM 64.0 °F 41.0 °F 43% 30.28 in 10.0 mi ESE 5.8 mph - N/A   Mostly Cloudy
4:56 PM 63.0 °F 42.1 °F 46% 30.26 in 10.0 mi SE 6.9 mph - N/A   Mostly Cloudy
5:56 PM 60.1 °F 42.1 °F 51% 30.25 in 10.0 mi ESE 4.6 mph - N/A   Mostly Cloudy
6:56 PM 57.9 °F 41.0 °F 53% 30.25 in 10.0 mi SE 6.9 mph - N/A   Mostly Cloudy
7:56 PM 59.0 °F 39.9 °F 49% 30.25 in 10.0 mi Calm Calm - N/A   Scattered Clouds
8:56 PM 57.0 °F 39.9 °F 53% 30.25 in 10.0 mi East 3.5 mph - N/A   Scattered Clouds
9:56 PM 55.0 °F 39.9 °F 57% 30.24 in 10.0 mi ESE 3.5 mph - N/A   Scattered Clouds
10:56 PM 53.1 °F 39.9 °F 61% 30.22 in 10.0 mi SE 4.6 mph - N/A   Scattered Clouds
11:56 PM 52.0 °F 39.9 °F 63% 30.22 in 10.0 mi SE 5.8 mph - N/A   Scattered Clouds